Dickinson, ND

9:47 AM MST on February 27, 2017 (GMT -0700)
Dickinson Municipal

Weather History for KDIK - January, 2011

Change the Weather History Date:

Thursday, January 13, 2011

  Actual Average Record
Temperature  
Mean Temperature 14 °F 16 °F  
Max Temperature 20 °F 26 °F 54 °F (1996)
Min Temperature 7 °F 6 °F -44 °F (1916)
Degree Days  
Heating Degree Days 51 49  
Month to date heating degree days 724 637  
Since 1 July heating degree days 4278 4174  
Cooling Degree Days 0 0  
Month to date cooling degree days 0 0  
Year to date cooling degree days 0 0  
Moisture  
Dew Point 6 °F    
Average Humidity 78    
Maximum Humidity 83    
Minimum Humidity 73    
Precipitation  
Precipitation 0.01 in 0.01 in 0.45 in (1932)
Month to date precipitation 0.24 0.14  
Year to date precipitation 0.24 0.14  
Sea Level Pressure  
Sea Level Pressure 30.14 in    
Wind  
Wind Speed 12 mph (West)    
Max Wind Speed 25 mph    
Max Gust Speed 29 mph    
Visibility 8 miles    
Events Snow    
T = Trace of Precipitation, MM = Missing Value Source: NWS Daily Summary

Daily Weather History Graph

Daily Weather History Graph

Search for Another Location

Airport or City:

Trip Planner

Search our weather history database for the weather conditions in past years. The results will help you decide how hot, cold, wet, or windy it might be!

Date:

Astronomy

Jan. 13, 2011 Rise Set
Actual Time 7:33 AM MST 4:26 PM MST
Civil Twilight 6:58 AM MST 5:01 PM MST
Nautical Twilight 6:21 AM MST 5:39 PM MST
Astronomical Twilight 5:44 AM MST 6:15 PM MST
Moon 11:13 AM MST (1/13) 1:29 AM MST (1/13)
Length of Visible Light 10h 02m
Length of Day
8h 53m
Waxing Gibbous, 63% of the Moon is Illuminated
Jan 13
Waxing Gibbous
Jan 19
Full
Jan 26
Last Quarter
Feb 2
New
Feb 11
First Quarter

Hourly Weather History & Observations

Time (MST) Temp. Windchill Dew Point Humidity Pressure Visibility Wind Dir Wind Speed Gust Speed Precip Events Conditions
12:56 AM 8.1 °F -4.3 °F 3.0 °F 80% 30.06 in 10.0 mi SSW 8.1 mph - N/A   Scattered Clouds
1:56 AM 9.0 °F -5.9 °F 3.9 °F 80% 30.05 in 10.0 mi SSW 11.5 mph - N/A   Overcast
2:56 AM 15.1 °F 3.3 °F 9.0 °F 77% 30.05 in 10.0 mi SW 9.2 mph - N/A   Overcast
3:56 AM 17.1 °F 1.5 °F 10.0 °F 74% 30.08 in 10.0 mi West 17.3 mph - N/A   Mostly Cloudy
4:56 AM 19.0 °F 5.6 °F 12.9 °F 77% 30.06 in 10.0 mi West 13.8 mph - N/A   Mostly Cloudy
5:56 AM 19.9 °F 6.2 °F 14.0 °F 78% 30.09 in 10.0 mi WNW 15.0 mph - N/A   Partly Cloudy
6:56 AM 17.1 °F 1.0 °F 12.0 °F 81% 30.11 in 10.0 mi WNW 18.4 mph - N/A   Partly Cloudy
7:56 AM 16.0 °F 2.3 °F 10.9 °F 81% 30.17 in 10.0 mi WNW 12.7 mph - N/A   Overcast
9:56 AM 12.9 °F -5.3 °F 7.0 °F 77% 30.24 in 6.0 mi NW 20.7 mph 27.6 mph N/A   Haze
10:56 AM 10.9 °F -5.9 °F 6.1 °F 81% 30.24 in 10.0 mi NW 16.1 mph - N/A   Clear
11:56 AM 10.9 °F -5.4 °F 5.0 °F 77% 30.22 in 10.0 mi WNW 15.0 mph - N/A   Clear
12:56 PM 10.0 °F -5.9 °F 5.0 °F 80% 30.23 in 10.0 mi WNW 13.8 mph - N/A   Clear
1:56 PM 10.0 °F -5.9 °F 3.9 °F 76% 30.23 in 10.0 mi WNW 13.8 mph - N/A   Partly Cloudy
2:56 PM 9.0 °F -6.6 °F 3.9 °F 80% 30.22 in 10.0 mi WNW 12.7 mph - N/A   Partly Cloudy
3:56 PM 9.0 °F -3.2 °F 3.9 °F 80% 30.25 in 10.0 mi WNW 8.1 mph - N/A   Scattered Clouds
4:56 PM 9.0 °F -4.2 °F 3.9 °F 80% 30.22 in 10.0 mi NW 9.2 mph - N/A   Overcast
5:56 PM 10.0 °F 0.4 °F 3.9 °F 76% 30.21 in 10.0 mi North 5.8 mph - N/A   Overcast
6:56 PM 9.0 °F -0.9 °F 3.0 °F 77% 30.21 in 10.0 mi NE 5.8 mph - N/A   Overcast
7:56 PM 8.1 °F -5.3 °F 3.0 °F 80% 30.20 in 10.0 mi ENE 9.2 mph - N/A   Overcast
8:56 PM 8.1 °F -6.2 °F 3.9 °F 83% 30.20 in 10.0 mi ESE 10.4 mph - N/A   Overcast
9:56 PM 9.0 °F -3.2 °F 5.0 °F 84% 30.20 in 9.0 mi ESE 8.1 mph - 0.00 in Snow Light Snow
10:10 PM 8.6 °F -1.3 °F 5.0 °F 85% 30.05 in 2.5 mi SE 5.8 mph - 0.00 in Snow Light Snow
10:28 PM 8.6 °F 0.1 °F 5.0 °F 85% 30.06 in 1.2 mi SE 4.6 mph - 0.00 in Snow Light Snow
10:34 PM 8.6 °F -1.3 °F 5.0 °F 85% 30.06 in 0.8 mi ESE 5.8 mph - 0.00 in Snow Light Snow
10:46 PM 10.4 °F -0.4 °F 6.8 °F 85% 30.05 in 1.2 mi ESE 6.9 mph - 0.00 in Snow Light Snow
10:56 PM 10.0 °F -1.9 °F 6.1 °F 84% 30.20 in 1.2 mi East 8.1 mph - 0.01 in Snow Light Snow
11:24 PM 8.6 °F -6.3 °F 5.0 °F 85% 30.03 in 1.8 mi ESE 11.5 mph - 0.00 in Snow Light Snow
11:34 PM 8.6 °F -6.3 °F 5.0 °F 85% 30.02 in 2.5 mi ESE 11.5 mph - 0.00 in Snow Light Snow
11:39 PM 8.6 °F -7.0 °F 5.0 °F 85% 30.02 in 3.0 mi ESE 12.7 mph - 0.00 in Snow Light Snow
11:56 PM 9.0 °F -5.1 °F 6.1 °F 88% 30.19 in 10.0 mi SE 10.4 mph - 0.00 in   Overcast